Mount Airy, NC

5:10 AM EDT on September 22, 2019 (GMT -0400)
Mount Airy-Surry County

Weather History for KMWK - May, 2019

Change the Weather History Date:

Thursday, May 23, 2019

  Actual Average (WUND) Record (WUND)
Temperature  
Mean Temperature 75 °F -  
Max Temperature 84 °F - - (-1)
Min Temperature 66 °F - - (-1)
Cooling Degree Days 10    
Growing Degree Days 25 (Base 50)    
Moisture  
Dew Point 69 °F    
Average Humidity 83    
Maximum Humidity 91    
Minimum Humidity 69    
Precipitation  
Precipitation 0.00 in - - ()
Sea Level Pressure  
Sea Level Pressure 30.24 in    
Wind  
Wind Speed 1 mph ()    
Max Wind Speed 9 mph    
Max Gust Speed -    
Visibility 9.9 miles    
Events      
Averages and records for this station are not official NWS values.
T = Trace of Precipitation, MM = Missing Value Source: Averaged Metar Reports

Daily Weather History Graph

Daily Weather History Graph

Search for Another Location

Airport or City:

Astronomy

May. 23, 2019 Rise Set
Actual Time 6:09 AM EDT 8:28 PM EDT
Civil Twilight 5:40 AM EDT 8:57 PM EDT
Nautical Twilight 5:04 AM EDT 9:33 PM EDT
Astronomical Twilight 4:25 AM EDT 10:13 PM EDT
Moon 12:09 AM EDT (5/23) 10:12 AM EDT (5/23)
Length of Visible Light 15h 17m
Length of Day
14h 18m
Waning Gibbous, 77% of the Moon is Illuminated
May 23
Waning Gibbous
May 26
Last Quarter
Jun 3
New
Jun 10
First Quarter
Jun 17
Full

Hourly Weather History & Observations

Time (EDT) Temp. Heat Index Dew Point Humidity Pressure Visibility Wind Dir Wind Speed Gust Speed Precip Events Conditions
12:00 AM 68.9 °F - 63.5 °F 83% 30.30 in 10.0 mi Calm Calm - N/A   Mostly Cloudy
12:20 AM 68.5 °F - 63.5 °F 84% 30.29 in 10.0 mi Calm Calm - N/A   Mostly Cloudy
12:40 AM 68.0 °F - 63.1 °F 84% 30.29 in 10.0 mi Calm Calm - N/A   Mostly Cloudy
1:00 AM 68.4 °F - 63.1 °F 83% 30.29 in 10.0 mi Calm Calm - N/A   Mostly Cloudy
1:20 AM 67.5 °F - 63.0 °F 85% 30.29 in 10.0 mi Calm Calm - N/A   Mostly Cloudy
1:40 AM 67.6 °F - 63.1 °F 85% 30.29 in 10.0 mi Calm Calm - N/A   Overcast
2:00 AM 68.2 °F - 63.7 °F 85% 30.28 in 10.0 mi Calm Calm - N/A   Overcast
2:20 AM 66.4 °F - 62.8 °F 88% 30.27 in 10.0 mi Calm Calm - N/A   Mostly Cloudy
2:40 AM 67.5 °F - 63.5 °F 87% 30.26 in 10.0 mi Calm Calm - N/A   Overcast
3:00 AM 67.1 °F - 63.5 °F 88% 30.26 in 10.0 mi Calm Calm - N/A   Overcast
3:20 AM 68.0 °F - 63.5 °F 85% 30.26 in 10.0 mi Calm Calm - N/A   Overcast
3:40 AM 67.8 °F - 63.7 °F 87% 30.27 in 10.0 mi Calm Calm - N/A   Overcast
4:00 AM 68.2 °F - 63.9 °F 86% 30.27 in 10.0 mi Calm Calm - N/A   Overcast
4:20 AM 67.6 °F - 63.9 °F 88% 30.27 in 10.0 mi Calm Calm - N/A   Overcast
4:40 AM 68.0 °F - 64.0 °F 87% 30.27 in 10.0 mi Calm Calm - N/A   Overcast
5:00 AM 68.2 °F - 63.9 °F 86% 30.27 in 10.0 mi Calm Calm - N/A   Overcast
5:20 AM 68.2 °F - 64.0 °F 87% 30.27 in 10.0 mi Calm Calm - N/A   Overcast
5:40 AM 68.5 °F - 64.4 °F 87% 30.27 in 10.0 mi Calm Calm - N/A   Overcast
6:00 AM 68.2 °F - 64.2 °F 87% 30.27 in 10.0 mi Calm Calm - N/A   Overcast
6:20 AM 68.4 °F - 64.2 °F 87% 30.28 in 10.0 mi SSE 3.5 mph - N/A   Overcast
6:40 AM 67.3 °F - 63.9 °F 89% 30.28 in 10.0 mi SSE 3.5 mph - N/A   Overcast
7:00 AM 67.1 °F - 64.0 °F 90% 30.29 in 10.0 mi Calm Calm - N/A   Overcast
7:20 AM 67.3 °F - 64.4 °F 90% 30.30 in 10.0 mi Calm Calm - N/A   Overcast
7:40 AM 67.1 °F - 64.4 °F 91% 30.30 in 10.0 mi Calm Calm - N/A   Overcast
8:00 AM 67.5 °F - 64.6 °F 90% 30.30 in 10.0 mi Calm Calm - N/A   Overcast
8:20 AM 67.6 °F - 64.8 °F 90% 30.30 in 10.0 mi Calm Calm - N/A   Overcast
8:40 AM 68.0 °F - 65.3 °F 91% 30.31 in 7.0 mi Calm Calm - N/A   Mostly Cloudy
9:00 AM 68.5 °F - 65.7 °F 90% 30.31 in 10.0 mi Calm Calm - N/A   Overcast
9:20 AM 68.7 °F - 65.7 °F 90% 30.31 in 10.0 mi Calm Calm - N/A   Overcast
9:40 AM 69.8 °F - 66.6 °F 89% 30.31 in 10.0 mi Calm Calm - N/A   Overcast
10:00 AM 70.0 °F - 66.6 °F 89% 30.31 in 10.0 mi Calm Calm - N/A   Overcast
10:20 AM 70.9 °F - 67.5 °F 89% 30.31 in 7.0 mi South 3.5 mph - N/A   Overcast
10:40 AM 72.5 °F - 68.5 °F 87% 30.29 in 10.0 mi Calm Calm - N/A   Overcast
11:00 AM 73.4 °F - 68.9 °F 86% 30.30 in 10.0 mi SSW 5.8 mph - N/A   Overcast
11:20 AM 73.4 °F - 68.9 °F 86% 30.29 in 10.0 mi SW 4.6 mph - N/A   Mostly Cloudy
11:40 AM 73.2 °F - 68.9 °F 86% 30.29 in 10.0 mi SSW 4.6 mph - N/A   Mostly Cloudy
12:00 PM 73.9 °F - 69.4 °F 86% 30.29 in 10.0 mi South 3.5 mph - N/A   Overcast
12:20 PM 75.9 °F - 70.2 °F 82% 30.29 in 10.0 mi SSW 6.9 mph - N/A   Overcast
12:40 PM 76.6 °F - 70.7 °F 82% 30.28 in 10.0 mi SSW 3.5 mph - N/A   Overcast
1:00 PM 76.1 °F - 70.2 °F 82% 30.28 in 10.0 mi SSW 4.6 mph - N/A   Overcast
1:20 PM 78.3 °F - 71.2 °F 79% 30.26 in 10.0 mi SSW 4.6 mph - N/A   Mostly Cloudy
1:40 PM 79.7 °F - 72.1 °F 78% 30.26 in 10.0 mi SSW 4.6 mph - N/A   Mostly Cloudy
2:00 PM 80.1 °F 83.7 °F 71.4 °F 75% 30.25 in 10.0 mi WSW 4.6 mph - N/A   Scattered Clouds
2:20 PM 80.1 °F 84.1 °F 72.7 °F 78% 30.24 in 10.0 mi SE 5.8 mph - N/A   Scattered Clouds
2:40 PM 80.4 °F 85.0 °F 73.4 °F 79% 30.23 in 10.0 mi SSE 5.8 mph - N/A   Mostly Cloudy
3:00 PM 81.1 °F 85.8 °F 72.7 °F 75% 30.22 in 10.0 mi SSW 6.9 mph - N/A   Scattered Clouds
3:20 PM 81.3 °F 86.5 °F 73.4 °F 77% 30.21 in 10.0 mi SSE 3.5 mph - N/A   Scattered Clouds
3:40 PM 81.5 °F 86.7 °F 73.4 °F 76% 30.20 in 10.0 mi SSE 3.5 mph - N/A   Scattered Clouds
4:00 PM 82.6 °F 88.8 °F 73.9 °F 75% 30.20 in 10.0 mi SW 3.5 mph - N/A   Scattered Clouds
4:20 PM 83.3 °F 89.9 °F 73.8 °F 73% 30.19 in 10.0 mi SSW 6.9 mph - N/A   Scattered Clouds
4:40 PM 82.8 °F 88.7 °F 73.4 °F 73% 30.18 in 10.0 mi South 3.5 mph - N/A   Scattered Clouds
5:00 PM 83.3 °F 90.5 °F 74.7 °F 75% 30.17 in 10.0 mi SSW 5.8 mph - N/A   Scattered Clouds
5:20 PM 84.0 °F 90.8 °F 73.8 °F 71% 30.17 in 10.0 mi South 9.2 mph - N/A   Scattered Clouds
5:40 PM 84.4 °F 91.0 °F 73.4 °F 69% 30.17 in 10.0 mi WSW 6.9 mph - N/A   Clear
6:00 PM 84.4 °F 91.0 °F 73.0 °F 69% 30.16 in 10.0 mi SW 5.8 mph - N/A   Clear
6:20 PM 84.2 °F 90.6 °F 73.2 °F 69% 30.15 in 10.0 mi SSW 4.6 mph - N/A   Clear
6:40 PM 84.2 °F 90.9 °F 73.6 °F 70% 30.15 in 10.0 mi South 4.6 mph - N/A   Clear
7:00 PM 83.5 °F 90.0 °F 73.6 °F 72% 30.15 in 10.0 mi Calm Calm - N/A   Clear
7:20 PM 82.6 °F 88.6 °F 73.6 °F 74% 30.14 in 10.0 mi Calm Calm - N/A   Clear
7:40 PM 81.7 °F 87.3 °F 73.8 °F 77% 30.14 in 10.0 mi Calm Calm - N/A   Clear
8:00 PM 81.1 °F 86.4 °F 73.8 °F 78% 30.14 in 10.0 mi Calm Calm - N/A   Clear
8:20 PM 80.2 °F 84.7 °F 73.4 °F 80% 30.15 in 10.0 mi Calm Calm - N/A   Clear
8:40 PM 79.7 °F - 73.2 °F 80% 30.15 in 10.0 mi Calm Calm - N/A   Clear
9:00 PM 79.0 °F - 72.7 °F 81% 30.15 in 10.0 mi Calm Calm - N/A   Clear
9:20 PM 78.8 °F - 72.5 °F 81% 30.16 in 10.0 mi Calm Calm - N/A   Clear
9:40 PM 77.9 °F - 72.1 °F 82% 30.16 in 10.0 mi Calm Calm - N/A   Clear
10:00 PM 77.4 °F - 72.1 °F 84% 30.17 in 10.0 mi Calm Calm - N/A   Clear
10:20 PM 76.5 °F - 71.8 °F 85% 30.17 in 10.0 mi Calm Calm - N/A   Clear
10:40 PM 76.1 °F - 71.4 °F 85% 30.17 in 10.0 mi Calm Calm - N/A   Clear
11:00 PM 75.7 °F - 71.1 °F 85% 30.17 in 10.0 mi Calm Calm - N/A   Clear
11:20 PM 75.2 °F - 70.7 °F 86% 30.18 in 10.0 mi Calm Calm - N/A   Clear
11:40 PM 74.8 °F - 70.7 °F 87% 30.18 in 10.0 mi Calm Calm - N/A   Clear